Regional Weather Roundup
Issued by NWS

Home | Current Version | Previous Version | Text Only | Print | Product List | Glossary On
Versions: 1 2 3 4 5 6 7 8 9 10 11 12 13 14 15 16 17 18 19 20 21 22 23 24 25 26 27 28 29 30 31 32 33 34 35 36 37 38 39 40 41 42 43 44 45 46 47 48 49 50
529
ASUS45 KCYS 210610
RWRWY

WYOMING REGIONAL WEATHER ROUNDUP
NATIONAL WEATHER SERVICE CHEYENNE WY
1100 PM MST TUE FEB 20 2018

NOTE:  "FAIR" INDICATES FEW OR NO CLOUDS BELOW 12,000 FEET
WITH NO SIGNIFICANT WEATHER AND/OR OBSTRUCTIONS TO VISIBILITY.

WYZ001-210700-
YELLOWSTONE NATIONAL PARK

CITY           SKY/WX    TMP DP  RH WIND       PRES   REMARKS
LK YELLOWSTONE   N/A    -22 -25  85 W3        29.95R
6HR MIN TEMP: -22; 6HR MAX TEMP:   0;

W YELLOWSTONE  NOT AVBL

$$
WYZ002>013-054>058-071-098>099-210700-
NORTHERN WYOMING

CITY           SKY/WX    TMP DP  RH WIND       PRES   REMARKS
JACKSON        LGT SNOW   1  -2  87 VRB3      30.05R FOG
CODY           FAIR     -15 -20  78 CALM      30.08S
GREYBULL       FAIR     -20 -23  86 NW6       30.20R WCI -35
6HR MIN TEMP: -20; 6HR MAX TEMP:   2;

WORLAND        FAIR     -16 -19  87 CALM      30.16S
6HR MIN TEMP: -19; 6HR MAX TEMP:   2;

SHERIDAN       FAIR     -14 -21  71 SW3       30.15S
6HR MIN TEMP: -16; 6HR MAX TEMP:   3;

BUFFALO        FAIR      -4 -15  59 W3        30.09R
6HR MIN TEMP:  -6; 6HR MAX TEMP:   6;

GILLETTE       FAIR      -6 -16  61 S9        30.15R WCI -23
6HR MIN TEMP: -10; 6HR MAX TEMP:   1;

HULETT         FAIR      -4 -15  59 MISG      30.16R
NEWCASTLE      FAIR     -11 -18  70 CALM      30.21R

$$
WYZ014>020-022>026-101>103-210700-
CENTRAL WYOMING

CITY           SKY/WX    TMP DP  RH WIND       PRES   REMARKS
BIG PINEY      FAIR     -16 -20  82 E6        30.03R WCI -31
6HR MIN TEMP: -19; 6HR MAX TEMP:   9; 6HR PCP: TRACE;

PINEDALE       FAIR     -15 -18  84 CALM      30.05R
DUBOIS           N/A    N/A N/A N/A MISG        N/A
LANDER         FAIR      -7 -11  83 SW8       30.06R WCI -23
6HR MIN TEMP:  -8; 6HR MAX TEMP:   4;

RIVERTON       FAIR     -12 -18  74 NW8       30.07R WCI -29
6HR MIN TEMP: -14; 6HR MAX TEMP:   2;

CASPER         FAIR      -4 -10  75 SW12      30.08R WCI -22
6HR MIN TEMP:  -7; 6HR MAX TEMP:   9;

DOUGLAS        FAIR     -19 -24  77 CALM      30.14R
6HR MIN TEMP: -19; 6HR MAX TEMP:  -2;


$$
WYZ021-027>030-104>119-210700-
SOUTHERN WYOMING

CITY           SKY/WX    TMP DP  RH WIND       PRES   REMARKS
EVANSTON       FAIR       0  -3  87 SE3       30.01S
6HR MIN TEMP:   0; 6HR MAX TEMP:  10;

ROCK SPRINGS   FAIR       2  -5  72 S6        30.05R WCI  -9
6HR MIN TEMP:   1; 6HR MAX TEMP:  12;

DIXON          FAIR      -1  -8  73 E7        30.12S WCI -14
RAWLINS        FAIR       3  -5  69 SW15      30.04S WCI -16
6HR MIN TEMP:   2; 6HR MAX TEMP:  10;

SARATOGA       FAIR      -6 -11  77 E5        30.05S WCI -17
LARAMIE        FAIR      -2 -10  69 SW15      30.02S WCI -22
6HR MIN TEMP:  -7; 6HR MAX TEMP:   6;

CHEYENNE       FAIR       3  -3  76 W8        30.11R WCI -10
6HR MIN TEMP:   1; 6HR MAX TEMP:  13;

TORRINGTON     FAIR      -1  -5  82 SE6       30.21R WCI -13
6HR MIN TEMP:  -5; 6HR MAX TEMP:  13;

PINE BLUFFS    FAIR      -6  -9  84 MISG      30.18S

$$




USA.gov is the U.S. government's official web portal to all federal, state and local government web resources and services.